[[{"header":{"parameterUnit":"m.s-1","parameterCategory":1,"la1":30.2991,"la2":30.254,"lo1":-89.0895,"lo2":-89.0444,"dy":0.0017,"dx":0.0017,"nx":28,"ny":28,"refTime":"2023-07-25T03:00:00:Z","depth":0,"parameterNumber":2,"parameterNumberName":"U-component_of_WINDS"},"data":[0,0,0,0,0,0,0,0,0,0,0,0,0,0,0,0,0,0,0,0,0,0,0,0,0,0,0,0,0,0,0,0,0,0,0,0,0,0,0,0,0,0,0,0,0,0,0,0,0,0,0,0,0,0,0,0,0,0,1.0088,1.0089,0,1.0152,1.0152,1.0153,1.0171,1.0171,1.017,1.017,1.0237,1.0239,1.0241,0,0,0,0,0,0,0,0,0,0,0,0,0,0.9983,0.9985,1.0088,1.0089,1.009,1.0151,1.0152,1.0153,1.0171,1.0171,1.017,1.017,1.0236,1.0238,1.0241,0,0,0,0,0,0,0,0,0,0,0,0,0,1.0036,0.9985,1.0088,1.0106,1.0108,1.0151,1.0152,1.0153,1.0171,1.0171,1.017,1.017,1.0235,1.0238,1.0241,1.0271,0,0,1.0251,1.0252,0,0,0,0,0,0,0,0,1.0033,1.0039,1.0103,1.0105,1.0107,1.0153,1.014,1.0193,1.0171,1.0147,1.017,1.0169,1.0209,1.0214,1.0228,1.0274,1.0277,1.0251,1.0253,1.0254,1.0255,0,0,0,0,0,0,0,1.0029,1.0037,1.0113,1.0103,1.0106,1.0111,1.0118,1.015,1.0181,1.0149,1.0151,1.0158,1.021,1.0224,1.0229,1.0278,1.0251,1.0254,1.0256,1.0257,1.0351,1.0351,0,0,0,0,0,0,1.0022,1.0034,1.0111,1.0115,1.0068,1.0113,1.0121,1.0139,1.018,1.0186,1.0158,1.0159,1.0219,1.0226,1.0232,1.0268,1.0254,1.0257,1.0259,1.035,1.0351,1.0352,0,0,0,0,0,0,1.002,1.0029,1.0109,1.0075,1.0085,1.0116,1.0135,1.014,1.0154,1.0187,1.0193,1.0167,1.0219,1.0227,1.0261,1.0271,1.0259,1.0262,1.035,1.035,1.0351,1.0343,0,0,0,0,0,0,1.0017,1.0028,1.004,1.0075,1.0087,1.0137,1.0136,1.0142,1.016,1.016,1.0197,1.0202,1.0219,1.0256,1.0264,1.0275,1.0264,1.0349,1.035,1.0351,1.0342,1.0343,1.0344,0,0,0,0,0,1.0013,1.0036,1.004,1.0049,1.0102,1.0137,1.0144,1.0163,1.016,1.0172,1.0193,1.0201,1.0268,1.0259,1.0268,1.0281,1.0348,1.035,1.0351,1.0342,1.0343,1.0344,0,0,0,0,0,0,1.0002,1.0041,1.0046,1.0081,1.0105,1.014,1.0156,1.0164,1.019,1.019,1.0213,1.0221,1.0253,1.027,1.0259,1.0311,1.0308,1.0312,1.0298,1.03,1.0301,1.0296,1.0267,0,0,0,0,0,1.0003,1.0028,1.0061,1.0088,1.01,1.0126,1.0142,1.0154,1.018,1.0191,1.0214,1.024,1.0267,1.0284,1.0311,1.0345,1.0352,1.0357,1.0358,1.0359,1.0361,1.0379,1.0381,1.0356,1.0356,1.0356,0,0,1.0007,1.0031,1.0046,1.0087,1.0107,1.0132,1.0135,1.0161,1.018,1.0196,1.0228,1.0246,1.0276,1.0309,1.0325,1.0325,1.037,1.0361,1.0361,1.0363,1.038,1.0383,1.0385,1.0357,1.0357,1.0357,0,0,1.0026,1.0047,1.0072,1.0092,1.0122,1.0139,1.0144,1.0177,1.0189,1.0222,1.0234,1.0256,1.0303,1.0323,1.034,1.0364,1.0372,1.0372,1.0377,1.0394,1.0396,1.0397,1.0405,1.0408,1.0374,1.0374,1.0374,0,1.0027,1.0065,1.0084,1.0109,1.0126,1.014,1.0164,1.0183,1.0221,1.0232,1.0231,1.0288,1.031,1.0347,1.0353,1.0366,1.0373,1.0368,1.0394,1.0396,1.0398,1.0405,1.0408,1.0374,1.0374,1.0374,1.0374,0,1.0064,1.009,1.0106,1.014,1.0159,1.0184,1.0206,1.0223,1.0233,1.025,1.0282,1.0308,1.0339,1.0349,1.036,1.0388,1.0386,1.0389,1.0387,1.04,1.0407,1.041,1.0374,1.0374,1.0374,1.0374,0,0,1.008,1.0122,1.0128,1.0143,1.0176,1.0197,1.0222,1.0251,1.0265,1.029,1.0311,1.0349,1.0351,1.037,1.0383,1.0397,1.0414,1.0398,1.0399,1.04,1.0444,1.0442,1.0445,1.0419,1.042,1.042,1.0441,0,1.0102,1.0147,1.0163,1.02,1.0223,1.0236,1.0257,1.028,1.0296,1.0318,1.0335,1.0361,1.0363,1.0374,1.0389,1.0408,1.0423,1.0407,1.0439,1.0439,1.043,1.0449,1.0447,1.0466,1.0445,1.0445,1.0446,0,1.0135,1.0159,1.0197,1.0226,1.0237,1.0256,1.0283,1.0304,1.033,1.034,1.036,1.0371,1.0397,1.0393,1.0429,1.0418,1.0432,1.0443,1.0444,1.0448,1.0443,1.0452,1.0472,1.0475,1.0451,1.045,1.045,0,1.0141,1.0183,1.0211,1.0224,1.0258,1.0271,1.0286,1.0311,1.0327,1.0352,1.0362,1.0389,1.0404,1.0425,1.0443,1.0439,1.0477,1.0475,1.0486,1.0485,1.0493,1.0493,1.0515,1.0503,1.0503,1.0503,1.0503,0,1.0165,1.0188,1.0214,1.0231,1.0257,1.0275,1.03,1.0316,1.0338,1.0358,1.0371,1.039,1.0413,1.0434,1.0449,1.0476,1.0483,1.0491,1.0495,1.049,1.0489,1.0499,1.0498,1.0504,1.0503,1.0503,1.0503,0,1.0176,1.0195,1.0226,1.0255,1.0263,1.028,1.0306,1.0323,1.0338,1.0364,1.0371,1.0395,1.0421,1.0441,1.0476,1.0485,1.0513,1.0518,1.0504,1.0506,1.0516,1.0514,1.0546,1.055,1.0535,1.0535,1.0535,0,1.019,1.0207,1.0238,1.0252,1.0266,1.0289,1.0305,1.0323,1.0339,1.0369,1.0382,1.0409,1.0431,1.0472,1.0493,1.0519,1.0523,1.0532,1.0527,1.0521,1.0522,1.0521,1.0522,1.0533,1.0533,1.0533,1.0533,0,1.0212,1.0219,1.0242,1.0266,1.0285,1.0305,1.0327,1.0337,1.0359,1.0377,1.0403,1.042,1.0454,1.048,1.0507,1.0523,1.0532,1.0534,1.0538,1.0533,1.0525,1.0529,1.0505,1.0534,1.0534,1.0534,1.0534,1.0534,1.0224,1.024,1.0263,1.0287,1.0304,1.0323,1.034,1.0356,1.0378,1.0406,1.0416,1.0443,1.0467,1.0504,1.052,1.0541,1.0541,1.0547,1.0549,1.055,1.0549,1.0521,1.0546,1.0546,1.0546,1.0546,1.0546,0,1.0246,1.0261,1.0282,1.031,1.0329,1.0334,1.0357,1.0372,1.0395,1.0416,1.0437,1.0467,1.0491,1.0514,1.0539,1.0552,1.0556,1.0558,1.0557,1.056,1.0547,1.0541,1.0554,1.0554,1.0554,1.0554,1.0554,1.0554,1.0259,1.0285,1.0295,1.0329,1.0345,1.037,1.0383,1.04,1.0416,1.0448,1.0468,1.0482,1.0504,1.0531,1.0554,1.0559,1.0568,1.0569,1.0575,1.0563,1.0562,1.0561,1.0555,1.0571,1.0571,1.0587,1.0587,1.0587]},{"header":{"parameterUnit":"m.s-1","parameterCategory":1,"la1":30.2991,"la2":30.254,"lo1":-89.0895,"lo2":-89.0444,"dy":0.0017,"dx":0.0017,"nx":28,"ny":28,"refTime":"2023-07-25T03:00:00:Z","depth":0,"parameterNumber":3,"parameterNumberName":"V-component_of_WINDS"},"data":[0,0,0,0,0,0,0,0,0,0,0,0,0,0,0,0,0,0,0,0,0,0,0,0,0,0,0,0,0,0,0,0,0,0,0,0,0,0,0,0,0,0,0,0,0,0,0,0,0,0,0,0,0,0,0,0,0,0,-0.1119,-0.112,0,-0.1187,-0.1187,-0.1188,-0.1214,-0.1214,-0.1213,-0.1213,-0.1285,-0.1287,-0.1289,0,0,0,0,0,0,0,0,0,0,0,0,0,-0.1014,-0.1016,-0.1119,-0.112,-0.1121,-0.1186,-0.1187,-0.1188,-0.1214,-0.1214,-0.1213,-0.1213,-0.1284,-0.1287,-0.1289,0,0,0,0,0,0,0,0,0,0,0,0,0,-0.1069,-0.1017,-0.1119,-0.1141,-0.1144,-0.1186,-0.1187,-0.1189,-0.1214,-0.1214,-0.1213,-0.1213,-0.1283,-0.1286,-0.1289,-0.1315,0,0,-0.1299,-0.13,0,0,0,0,0,0,0,0,-0.1065,-0.1072,-0.1137,-0.114,-0.1143,-0.1191,-0.1177,-0.1231,-0.1214,-0.1187,-0.1213,-0.1213,-0.1254,-0.126,-0.1273,-0.1319,-0.1322,-0.1299,-0.1301,-0.1303,-0.1304,0,0,0,0,0,0,0,-0.1062,-0.107,-0.1146,-0.1138,-0.1142,-0.1149,-0.1156,-0.1187,-0.1222,-0.119,-0.1192,-0.1199,-0.1256,-0.127,-0.1275,-0.1323,-0.1299,-0.1302,-0.1304,-0.1305,-0.1393,-0.1394,0,0,0,0,0,0,-0.1054,-0.1066,-0.1144,-0.1148,-0.1103,-0.1151,-0.1159,-0.1176,-0.1221,-0.1228,-0.1199,-0.12,-0.1265,-0.1271,-0.1278,-0.1311,-0.1303,-0.1306,-0.1307,-0.1393,-0.1394,-0.1394,0,0,0,0,0,0,-0.1052,-0.106,-0.1141,-0.1108,-0.1118,-0.1153,-0.1172,-0.1178,-0.1192,-0.1229,-0.1235,-0.1208,-0.1265,-0.1273,-0.1306,-0.1314,-0.1307,-0.131,-0.1392,-0.1393,-0.1394,-0.1378,0,0,0,0,0,0,-0.1048,-0.1059,-0.1069,-0.1108,-0.112,-0.1167,-0.1172,-0.1179,-0.1197,-0.1199,-0.1238,-0.1244,-0.1265,-0.1301,-0.1309,-0.1318,-0.1312,-0.1392,-0.1393,-0.1394,-0.1378,-0.1378,-0.1378,0,0,0,0,0,-0.1045,-0.1062,-0.1069,-0.1079,-0.1133,-0.1167,-0.1175,-0.1197,-0.1198,-0.1208,-0.1232,-0.1243,-0.1312,-0.1304,-0.1313,-0.1324,-0.1391,-0.1393,-0.1394,-0.1378,-0.1378,-0.1378,0,0,0,0,0,0,-0.1024,-0.1068,-0.1076,-0.1107,-0.1133,-0.1172,-0.1185,-0.1197,-0.1224,-0.1225,-0.1253,-0.1261,-0.1292,-0.1311,-0.1301,-0.1351,-0.1352,-0.1355,-0.1337,-0.1338,-0.1338,-0.1333,-0.1315,0,0,0,0,0,-0.1023,-0.1047,-0.1084,-0.1108,-0.112,-0.115,-0.1166,-0.1182,-0.121,-0.1222,-0.1248,-0.1276,-0.1304,-0.1322,-0.135,-0.1381,-0.139,-0.1393,-0.1393,-0.1393,-0.1395,-0.1414,-0.1415,-0.1397,-0.1397,-0.1397,0,0,-0.1022,-0.1048,-0.1062,-0.1104,-0.1126,-0.1151,-0.116,-0.1186,-0.1205,-0.1226,-0.1258,-0.1278,-0.1312,-0.1344,-0.1359,-0.1361,-0.1402,-0.1394,-0.1394,-0.1396,-0.1415,-0.1416,-0.1418,-0.1398,-0.1398,-0.1398,0,0,-0.1032,-0.1054,-0.1076,-0.1098,-0.1131,-0.1151,-0.1157,-0.1194,-0.1208,-0.124,-0.1257,-0.128,-0.1328,-0.1351,-0.1369,-0.1388,-0.14,-0.1396,-0.1397,-0.1415,-0.1416,-0.1417,-0.1425,-0.1427,-0.1398,-0.1398,-0.1398,0,-0.1026,-0.1063,-0.1086,-0.1111,-0.113,-0.115,-0.1173,-0.1193,-0.1234,-0.1247,-0.1248,-0.1308,-0.1332,-0.137,-0.1374,-0.1388,-0.1396,-0.1392,-0.1414,-0.1415,-0.1417,-0.1424,-0.1427,-0.1398,-0.1398,-0.1398,-0.1398,0,-0.1055,-0.108,-0.1094,-0.1132,-0.1153,-0.1176,-0.1204,-0.1222,-0.1235,-0.1255,-0.1289,-0.1318,-0.1352,-0.1362,-0.1376,-0.1402,-0.1402,-0.1408,-0.141,-0.1418,-0.1425,-0.1428,-0.1397,-0.1397,-0.1397,-0.1397,0,0,-0.1054,-0.1104,-0.1109,-0.1127,-0.1165,-0.1186,-0.1211,-0.1244,-0.1259,-0.1287,-0.1309,-0.1349,-0.1354,-0.1375,-0.1391,-0.1407,-0.1421,-0.1411,-0.1412,-0.1412,-0.1452,-0.1448,-0.1451,-0.1429,-0.1429,-0.143,-0.145,0,-0.1069,-0.1114,-0.1136,-0.1172,-0.1196,-0.1215,-0.1238,-0.1264,-0.1283,-0.1308,-0.133,-0.1357,-0.1363,-0.1375,-0.1391,-0.1415,-0.1429,-0.1414,-0.1451,-0.1452,-0.1442,-0.1454,-0.145,-0.1467,-0.1453,-0.1453,-0.1454,0,-0.1093,-0.112,-0.1158,-0.1194,-0.1205,-0.1224,-0.1256,-0.1279,-0.1309,-0.1322,-0.1345,-0.1361,-0.1389,-0.1389,-0.1429,-0.1418,-0.1434,-0.1449,-0.145,-0.1455,-0.1453,-0.146,-0.1473,-0.1476,-0.1458,-0.1458,-0.1457,0,-0.1089,-0.1135,-0.1164,-0.1178,-0.1221,-0.1234,-0.1252,-0.1282,-0.1301,-0.1329,-0.1341,-0.1373,-0.139,-0.1414,-0.1439,-0.1436,-0.1477,-0.1478,-0.1489,-0.1489,-0.1497,-0.1497,-0.1514,-0.1507,-0.1507,-0.1507,-0.1507,0,-0.1104,-0.1127,-0.1163,-0.118,-0.1207,-0.1232,-0.1257,-0.1277,-0.1304,-0.1327,-0.1346,-0.1367,-0.1397,-0.1423,-0.1442,-0.1473,-0.148,-0.1492,-0.1498,-0.1491,-0.149,-0.1502,-0.1502,-0.1507,-0.1507,-0.1507,-0.1507,0,-0.1105,-0.1129,-0.1162,-0.1199,-0.1209,-0.1227,-0.1259,-0.1278,-0.1298,-0.1326,-0.1335,-0.1367,-0.1398,-0.1424,-0.1465,-0.1478,-0.151,-0.1516,-0.1499,-0.1502,-0.1512,-0.1511,-0.1539,-0.1544,-0.1532,-0.1532,-0.1532,0,-0.1113,-0.1131,-0.117,-0.1186,-0.1204,-0.1229,-0.1248,-0.1274,-0.1292,-0.1329,-0.1343,-0.1375,-0.1402,-0.145,-0.1478,-0.151,-0.1517,-0.1524,-0.1522,-0.1515,-0.1518,-0.1516,-0.1519,-0.1524,-0.1524,-0.1524,-0.1524,0,-0.1125,-0.1137,-0.1162,-0.1192,-0.1214,-0.1239,-0.1265,-0.1277,-0.1308,-0.1328,-0.136,-0.138,-0.1422,-0.1454,-0.1488,-0.1508,-0.1522,-0.1525,-0.1529,-0.1523,-0.1513,-0.1519,-0.15,-0.1524,-0.1524,-0.1524,-0.1524,-0.1524,-0.113,-0.1147,-0.1177,-0.1206,-0.1227,-0.1251,-0.127,-0.1293,-0.1319,-0.1354,-0.1368,-0.14,-0.1431,-0.1478,-0.1498,-0.1524,-0.1527,-0.1533,-0.1535,-0.1536,-0.1535,-0.1508,-0.1531,-0.1531,-0.1531,-0.1531,-0.1531,0,-0.1144,-0.1164,-0.119,-0.1225,-0.1248,-0.1257,-0.1286,-0.1305,-0.1332,-0.136,-0.1385,-0.1422,-0.1453,-0.1483,-0.1516,-0.1531,-0.1538,-0.1539,-0.1538,-0.1543,-0.1531,-0.1524,-0.1532,-0.1532,-0.1532,-0.1532,-0.1532,-0.1532,-0.1154,-0.1183,-0.1198,-0.1239,-0.1259,-0.129,-0.1306,-0.1328,-0.135,-0.1389,-0.1415,-0.1433,-0.1462,-0.1497,-0.1527,-0.1535,-0.1546,-0.1545,-0.1555,-0.1544,-0.1543,-0.1543,-0.1537,-0.1547,-0.1547,-0.1565,-0.1565,-0.1565]}]]